STARLINK-31942, 59899

Orbit data source: Space-Track

STARLINK-31942, 59899 is a payload satellite owned by SpaceX/Seattle (US) in LEO that was launched on Tue, 28 May 2024 UTC via an FALCON 9 launch vehicle from the Air Force Eastern Test Range (AFETR). Payload-class satellites include a variety of spacecraft equipped with specific instruments for various scientific and technological missions. These include communications satellites like Starlink; space stations such as the ISS; scientific satellites like the Hubble; Earth observation satellites from companies like Planet Labs, Umbra, and HawkEye 360; GPS; miniature CubeSats for education and research; and military/defense satellites.

Loading next visibility...
Identifier
59899, 2024-100Q
Orbit
LEO
Country
Flag of USUS
Related business
Manufacturer
SpaceX/Seattle
Mission
Operational Commercial Communications
Bus & Motor
STARLINK V2M, Unknown motor
Mass
730 kg wet, ~700 kg dry
Launch date (UTC)
2024-05-28 (1 year ago)
Launch vehicle
FALCON 9
Launch site
Air Force Eastern Test Range (AFETR)
Object type
Payload
Rocket body
Debris
Shape & HBR
Box + 2 Pan, 17.7 m
Radar Cross Section
33.884 m², Large (>1 m²)

Expand to show TLE details & history
Last TLE update: 19 hours ago

TLE from 19 hours ago
0 STARLINK-31942
1 59899U 24100Q   25310.79567201 -.00001417  00000-0 -42007-4 0  9997
2 59899  43.0048  99.2829 0000836 291.7870  68.2893 15.27571412 82350
Epoch: 2025-11-06T19:05Z
TLE epoch observation values (Epoch: 2025-11-06T19:05:46.061Z)
Latitude
-0.00001°
Longitude
126.59211°
Altitude
482.639 km
Speed
7.626 km/s
True Right ascension
06h 37m 07s
True Declination
0° 00' 00"
Sunlit
Object was in full shadow at epoch
Visualization orbit readout
Latitude
Unknown
Longitude
Unknown
Altitude
Unknown
Speed
Unknown
Apparent Right ascension
Unknown
Apparent Declination
Unknown
Sunlit
N/A
Visualization observer readout
Local Sidereal Time
10:11:16
Azimuth
Unknown
Elevation
Unknown
Doppler factor
Unknown
Orbital elements
Apogee altitude
485.593 km
Perigee altitude
484.445 km
Semi-major axis
6,863.156 km
Eccentricity
0.00008
Inclination
43.0048°
RAAN
99.2829°
Arg. of periapsis
291.787°
True anomaly
68.2982°
Mean anomaly
68.2893°
Eccentric anomaly
68.29375°
Mean motion
3.81731 °/min
Orbital period
94.31 mins
BSTAR
-0.000042007
Loading maneuver chart data...
Computing Atmospheric mass density...
Loading historical data...
Loading historical data...
Loading historical data...
Loading historical data...
Loading historical data...
Loading historical data...
Loading historical data...

Documentation

Showing up to 5 results
|